Location: El Nido
(33.8656°N, 118.3615°W)
Time: 10:03:45
(UTC+00:00)

Genesis I - Pass Details

Date: 03 August 2024
Orbit: 412 x 456 km, 64.5° (Epoch: 11 September)

Event Time Altitude Azimuth Distance (km) Brightness Sun altitude
Exits shadow 12:30:02 - 203° (SSW) 1,943 5.7 -7.8°
Reaches altitude 10° 12:31:04 10° 202° (SSW) 1,514 5.1 -7.7°
Maximum altitude 12:34:25 72° 117° (ESE) 459 3.1 -7.0°
Drops below altitude 10° 12:37:52 10° 33° (NNE) 1,561 6.7 -6.4°
Sets 12:40:00 0° 31° (NNE) 2,448 7.7 -6.0°
